Time,TemperatureF,DewpointF,PressureIn,WindDirection,WindDirectionDegrees,WindSpeedMPH,WindSpeedGustMPH,Humidity,HourlyPrecipIn,Conditions,Clouds,dailyrainin,SolarRadiationWatts/m^2,SoftwareType,DateUTC
2013-07-25 00:02:00,67.0,48.0,29.89,North,355,0.0,-999.0,51,-99.99,,,-99.99,0.000000,,2013-07-25 06:02:00,
2013-07-25 00:12:00,67.0,49.0,29.88,NNW,340,0.0,-999.0,53,-99.99,,,-99.99,0.000000,,2013-07-25 06:12:00,
2013-07-25 00:22:00,67.0,50.0,29.88,North,360,1.0,-999.0,54,-99.99,,,-99.99,0.000000,,2013-07-25 06:22:00,
2013-07-25 00:32:00,67.0,50.0,29.88,North,360,1.0,-999.0,54,-99.99,,,-99.99,0.000000,,2013-07-25 06:32:00,
2013-07-25 00:42:00,67.0,49.0,29.88,North,360,0.0,-999.0,53,-99.99,,,-99.99,0.000000,,2013-07-25 06:42:00,
2013-07-25 00:52:00,68.0,48.0,29.88,ESE,121,2.0,-999.0,48,-99.99,,,-99.99,0.000000,,2013-07-25 06:52:00,
2013-07-25 01:02:00,68.0,48.0,29.88,ESE,121,2.0,-999.0,48,-99.99,,,-99.99,0.000000,,2013-07-25 07:02:00,
2013-07-25 01:12:00,68.0,46.0,29.87,SE,125,0.0,-999.0,46,-99.99,,,-99.99,0.000000,,2013-07-25 07:12:00,
2013-07-25 01:22:00,68.0,46.0,29.90,NE,49,2.0,-999.0,46,-99.99,,,-99.99,0.000000,,2013-07-25 07:22:00,
2013-07-25 01:32:00,68.0,46.0,29.90,NE,49,2.0,-999.0,46,-99.99,,,-99.99,0.000000,,2013-07-25 07:32:00,
2013-07-25 01:43:00,66.0,47.0,29.89,ESE,104,5.0,-999.0,50,-99.99,,,-99.99,0.000000,,2013-07-25 07:43:00,
2013-07-25 01:53:00,68.0,46.0,29.89,East,84,2.0,-999.0,46,-99.99,,,-99.99,0.000000,,2013-07-25 07:53:00,
2013-07-25 02:02:00,68.0,46.0,29.89,East,84,2.0,-999.0,46,-99.99,,,-99.99,0.000000,,2013-07-25 08:02:00,
2013-07-25 02:12:00,68.0,46.0,29.88,ESE,123,3.0,-999.0,45,-99.99,,,-99.99,0.000000,,2013-07-25 08:12:00,
2013-07-25 02:22:00,67.0,47.0,29.89,SE,126,0.0,-999.0,49,-99.99,,,-99.99,0.000000,,2013-07-25 08:22:00,
2013-07-25 02:32:00,67.0,47.0,29.89,SE,126,0.0,-999.0,49,-99.99,,,-99.99,0.000000,,2013-07-25 08:32:00,
2013-07-25 02:44:00,66.0,46.0,29.89,SE,126,0.0,-999.0,48,-99.99,,,-99.99,0.000000,,2013-07-25 08:44:00,
2013-07-25 02:52:00,65.0,45.0,29.89,SE,126,0.0,-999.0,49,-99.99,,,-99.99,0.000000,,2013-07-25 08:52:00,
2013-07-25 03:02:00,65.0,45.0,29.89,SE,126,0.0,-999.0,49,-99.99,,,-99.99,0.000000,,2013-07-25 09:02:00,
2013-07-25 03:12:00,66.0,47.0,29.89,SE,126,0.0,-999.0,51,-99.99,,,-99.99,0.000000,,2013-07-25 09:12:00,
2013-07-25 03:22:00,65.0,47.0,29.88,NW,313,0.0,-999.0,52,-99.99,,,-99.99,0.000000,,2013-07-25 09:22:00,
2013-07-25 03:33:00,65.0,47.0,29.88,NW,313,0.0,-999.0,52,-99.99,,,-99.99,0.000000,,2013-07-25 09:33:00,
2013-07-25 03:43:00,65.0,46.0,29.89,NW,309,0.0,-999.0,51,-99.99,,,-99.99,0.000000,,2013-07-25 09:43:00,
2013-07-25 03:52:00,66.0,47.0,29.89,NW,309,0.0,-999.0,50,-99.99,,,-99.99,0.000000,,2013-07-25 09:52:00,
2013-07-25 04:02:00,66.0,47.0,29.89,NW,309,0.0,-999.0,50,-99.99,,,-99.99,0.000000,,2013-07-25 10:02:00,
2013-07-25 04:12:00,64.0,47.0,29.89,NNE,17,0.0,-999.0,53,-99.99,,,-99.99,0.000000,,2013-07-25 10:12:00,
2013-07-25 04:22:00,63.0,46.0,29.89,NNW,338,2.0,-999.0,53,-99.99,,,-99.99,0.000000,,2013-07-25 10:22:00,
2013-07-25 04:32:00,63.0,46.0,29.89,NNW,338,2.0,-999.0,53,-99.99,,,-99.99,0.000000,,2013-07-25 10:32:00,
2013-07-25 04:42:00,62.0,46.0,29.89,North,360,3.0,-999.0,56,-99.99,,,-99.99,0.000000,,2013-07-25 10:42:00,
2013-07-25 04:53:00,60.0,47.0,29.91,North,360,7.0,-999.0,62,-99.99,,,-99.99,0.000000,,2013-07-25 10:53:00,
2013-07-25 05:02:00,60.0,47.0,29.91,North,360,7.0,-999.0,62,-99.99,,,-99.99,0.000000,,2013-07-25 11:02:00,
2013-07-25 05:12:00,59.0,47.0,29.92,NE,36,5.0,-999.0,65,-99.99,,,-99.99,0.000000,,2013-07-25 11:12:00,
2013-07-25 05:22:00,63.0,44.0,29.92,North,11,13.0,-999.0,49,-99.99,,,-99.99,0.000000,,2013-07-25 11:22:00,
2013-07-25 05:32:00,63.0,44.0,29.92,North,11,13.0,-999.0,49,-99.99,,,-99.99,0.000000,,2013-07-25 11:32:00,
2013-07-25 05:43:00,64.0,44.0,29.93,NNE,16,12.0,-999.0,48,-99.99,,,-99.99,0.000000,,2013-07-25 11:43:00,
2013-07-25 05:52:00,64.0,44.0,29.93,North,360,12.0,-999.0,49,-99.99,,,-99.99,0.000000,,2013-07-25 11:52:00,
2013-07-25 06:02:00,64.0,44.0,29.93,North,360,12.0,-999.0,49,-99.99,,,-99.99,0.000000,,2013-07-25 12:02:00,
2013-07-25 06:12:00,64.0,45.0,29.94,NNE,20,12.0,-999.0,51,-99.99,,,-99.99,0.000000,,2013-07-25 12:12:00,
2013-07-25 06:22:00,64.0,45.0,29.95,North,360,16.0,-999.0,51,-99.99,,,-99.99,9.000000,,2013-07-25 12:22:00,
2013-07-25 06:32:00,64.0,45.0,29.95,North,360,16.0,-999.0,51,-99.99,,,-99.99,9.000000,,2013-07-25 12:32:00,
2013-07-25 06:45:00,65.0,46.0,29.96,NNE,17,15.0,-999.0,50,-99.99,,,-99.99,12.000000,,2013-07-25 12:45:00,
2013-07-25 06:53:00,65.0,46.0,29.98,North,350,9.0,-999.0,50,-99.99,,,-99.99,21.000000,,2013-07-25 12:53:00,
2013-07-25 07:02:00,65.0,46.0,29.98,North,350,9.0,-999.0,50,-99.99,,,-99.99,21.000000,,2013-07-25 13:02:00,
2013-07-25 07:12:00,65.0,46.0,30.00,WNW,288,2.0,-999.0,51,-99.99,,,-99.99,39.000000,,2013-07-25 13:12:00,
2013-07-25 07:22:00,64.0,46.0,30.01,WSW,242,0.0,-999.0,52,-99.99,,,-99.99,60.000000,,2013-07-25 13:22:00,
2013-07-25 07:33:00,64.0,46.0,30.01,WSW,242,0.0,-999.0,52,-99.99,,,-99.99,60.000000,,2013-07-25 13:33:00,
2013-07-25 07:42:00,63.0,45.0,30.02,WSW,244,0.0,-999.0,52,-99.99,,,-99.99,77.000000,,2013-07-25 13:42:00,
2013-07-25 07:52:00,64.0,46.0,30.02,SSW,200,0.0,-999.0,52,-99.99,,,-99.99,90.000000,,2013-07-25 13:52:00,
2013-07-25 08:02:00,64.0,46.0,30.02,SSW,200,0.0,-999.0,52,-99.99,,,-99.99,90.000000,,2013-07-25 14:02:00,
2013-07-25 08:12:00,65.0,46.0,30.03,ESE,112,0.0,-999.0,51,-99.99,,,-99.99,118.000000,,2013-07-25 14:12:00,
2013-07-25 08:22:00,66.0,46.0,30.04,NE,55,1.0,-999.0,49,-99.99,,,-99.99,309.000000,,2013-07-25 14:22:00,
2013-07-25 08:33:00,66.0,46.0,30.04,NE,55,1.0,-999.0,49,-99.99,,,-99.99,309.000000,,2013-07-25 14:33:00,
2013-07-25 08:43:00,68.0,47.0,30.05,ESE,119,5.0,-999.0,47,-99.99,,,-99.99,334.000000,,2013-07-25 14:43:00,
2013-07-25 08:53:00,67.0,48.0,30.05,SSE,165,1.0,-999.0,50,-99.99,,,-99.99,387.000000,,2013-07-25 14:53:00,
2013-07-25 09:02:00,67.0,48.0,30.05,SSE,165,1.0,-999.0,50,-99.99,,,-99.99,387.000000,,2013-07-25 15:02:00,
2013-07-25 09:12:00,68.0,48.0,30.05,East,97,4.0,-999.0,48,-99.99,,,-99.99,417.000000,,2013-07-25 15:12:00,
2013-07-25 09:22:00,70.0,47.0,30.06,NE,55,4.0,-999.0,44,-99.99,,,-99.99,475.000000,,2013-07-25 15:22:00,
2013-07-25 09:32:00,70.0,47.0,30.06,NE,55,4.0,-999.0,44,-99.99,,,-99.99,475.000000,,2013-07-25 15:32:00,
2013-07-25 09:44:00,71.0,47.0,30.05,NE,46,7.0,-999.0,43,-99.99,,,-99.99,520.000000,,2013-07-25 15:44:00,
2013-07-25 09:52:00,70.0,47.0,30.05,ENE,73,6.0,-999.0,44,-99.99,,,-99.99,494.000000,,2013-07-25 15:52:00,
2013-07-25 10:02:00,70.0,47.0,30.05,ENE,73,6.0,-999.0,44,-99.99,,,-99.99,494.000000,,2013-07-25 16:02:00,
2013-07-25 10:12:00,70.0,46.0,30.06,ENE,75,6.0,-999.0,43,-99.99,,,-99.99,380.000000,,2013-07-25 16:12:00,
2013-07-25 10:22:00,70.0,46.0,30.06,ESE,111,4.0,-999.0,43,-99.99,,,-99.99,396.000000,,2013-07-25 16:22:00,
2013-07-25 10:33:00,70.0,46.0,30.06,ESE,111,4.0,-999.0,43,-99.99,,,-99.99,396.000000,,2013-07-25 16:33:00,
2013-07-25 10:45:00,70.0,46.0,30.06,ESE,113,3.0,-999.0,43,-99.99,,,-99.99,605.000000,,2013-07-25 16:45:00,
2013-07-25 10:53:00,72.0,48.0,30.07,SE,144,3.0,-999.0,42,-99.99,,,-99.99,712.000000,,2013-07-25 16:53:00,
2013-07-25 11:03:00,72.0,48.0,30.07,SE,144,3.0,-999.0,42,-99.99,,,-99.99,712.000000,,2013-07-25 17:03:00,
2013-07-25 11:12:00,71.0,50.0,30.07,ESE,113,2.0,-999.0,48,-99.99,,,-99.99,378.000000,,2013-07-25 17:12:00,
2013-07-25 11:22:00,71.0,49.0,30.07,ESE,111,2.0,-999.0,46,-99.99,,,-99.99,285.000000,,2013-07-25 17:22:00,
2013-07-25 11:32:00,71.0,49.0,30.07,ESE,111,2.0,-999.0,46,-99.99,,,-99.99,285.000000,,2013-07-25 17:32:00,
2013-07-25 11:43:00,71.0,49.0,30.07,SE,134,1.0,-999.0,46,-99.99,,,-99.99,255.000000,,2013-07-25 17:43:00,
2013-07-25 11:53:00,72.0,50.0,30.06,SW,215,1.0,-999.0,46,-99.99,,,-99.99,861.000000,,2013-07-25 17:53:00,
2013-07-25 12:02:00,72.0,50.0,30.06,SW,215,1.0,-999.0,46,-99.99,,,-99.99,861.000000,,2013-07-25 18:02:00,
2013-07-25 12:12:00,73.0,50.0,30.06,SW,230,2.0,-999.0,44,-99.99,,,-99.99,689.000000,,2013-07-25 18:12:00,
2013-07-25 12:22:00,73.0,49.0,30.06,SW,219,2.0,-999.0,43,-99.99,,,-99.99,671.000000,,2013-07-25 18:22:00,
2013-07-25 12:33:00,73.0,49.0,30.06,SW,219,2.0,-999.0,43,-99.99,,,-99.99,671.000000,,2013-07-25 18:33:00,
2013-07-25 12:43:00,74.0,49.0,30.05,SW,234,1.0,-999.0,42,-99.99,,,-99.99,772.000000,,2013-07-25 18:43:00,
2013-07-25 12:52:00,75.0,49.0,30.05,SSW,197,1.0,-999.0,40,-99.99,,,-99.99,543.000000,,2013-07-25 18:52:00,
2013-07-25 13:02:00,75.0,49.0,30.05,SSW,197,1.0,-999.0,40,-99.99,,,-99.99,543.000000,,2013-07-25 19:02:00,
2013-07-25 13:12:00,76.0,49.0,30.04,SSE,167,1.0,-999.0,39,-99.99,,,-99.99,944.000000,,2013-07-25 19:12:00,
2013-07-25 13:22:00,77.0,49.0,30.03,West,276,1.0,-999.0,38,-99.99,,,-99.99,,,2013-07-25 19:22:00,
2013-07-25 13:33:00,77.0,49.0,30.03,West,276,1.0,-999.0,38,-99.99,,,-99.99,,,2013-07-25 19:33:00,
2013-07-25 13:42:00,78.0,47.0,30.03,NNE,30,3.0,-999.0,34,-99.99,,,-99.99,388.000000,,2013-07-25 19:42:00,
2013-07-25 13:52:00,79.0,48.0,30.03,NNW,346,1.0,-999.0,34,-99.99,,,-99.99,914.000000,,2013-07-25 19:52:00,
2013-07-25 14:02:00,79.0,48.0,30.03,NNW,346,1.0,-999.0,34,-99.99,,,-99.99,914.000000,,2013-07-25 20:02:00,
2013-07-25 14:12:00,79.0,47.0,30.03,North,11,2.0,-999.0,33,-99.99,,,-99.99,304.000000,,2013-07-25 20:12:00,
2013-07-25 14:22:00,78.0,48.0,30.02,NNE,31,5.0,-999.0,35,-99.99,,,-99.99,237.000000,,2013-07-25 20:22:00,
2013-07-25 14:32:00,78.0,48.0,30.02,NNE,31,5.0,-999.0,35,-99.99,,,-99.99,237.000000,,2013-07-25 20:32:00,
2013-07-25 14:43:00,77.0,48.0,30.02,NNW,341,1.0,-999.0,36,-99.99,,,-99.99,471.000000,,2013-07-25 20:43:00,
2013-07-25 14:53:00,79.0,49.0,30.03,North,355,1.0,-999.0,35,-99.99,,,-99.99,631.000000,,2013-07-25 20:53:00,
2013-07-25 15:02:00,79.0,49.0,30.03,North,355,1.0,-999.0,35,-99.99,,,-99.99,631.000000,,2013-07-25 21:02:00,
2013-07-25 15:12:00,79.0,49.0,30.03,WSW,256,2.0,-999.0,35,-99.99,,,-99.99,334.000000,,2013-07-25 21:12:00,
2013-07-25 15:22:00,78.0,48.0,30.03,WSW,257,2.0,-999.0,35,-99.99,,,-99.99,304.000000,,2013-07-25 21:22:00,
2013-07-25 15:32:00,78.0,48.0,30.03,WSW,257,2.0,-999.0,35,-99.99,,,-99.99,304.000000,,2013-07-25 21:32:00,
2013-07-25 15:44:00,78.0,49.0,30.03,WNW,290,2.0,-999.0,36,-99.99,,,-99.99,348.000000,,2013-07-25 21:44:00,
2013-07-25 15:52:00,79.0,47.0,30.03,NE,34,0.0,-999.0,33,-99.99,,,-99.99,297.000000,,2013-07-25 21:52:00,
2013-07-25 16:02:00,79.0,47.0,30.03,NE,34,0.0,-999.0,33,-99.99,,,-99.99,297.000000,,2013-07-25 22:02:00,
2013-07-25 16:12:00,79.0,47.0,30.03,NE,42,1.0,-999.0,33,-99.99,,,-99.99,246.000000,,2013-07-25 22:12:00,
2013-07-25 16:22:00,78.0,46.0,30.03,NNW,331,1.0,-999.0,32,-99.99,,,-99.99,220.000000,,2013-07-25 22:22:00,
2013-07-25 16:32:00,78.0,46.0,30.03,NNW,331,1.0,-999.0,32,-99.99,,,-99.99,220.000000,,2013-07-25 22:32:00,
2013-07-25 16:43:00,80.0,46.0,30.03,North,355,1.0,-999.0,30,-99.99,,,-99.99,954.000000,,2013-07-25 22:43:00,
2013-07-25 16:52:00,81.0,45.0,30.03,North,360,6.0,-999.0,28,-99.99,,,-99.99,763.000000,,2013-07-25 22:52:00,
2013-07-25 17:02:00,81.0,45.0,30.03,North,360,6.0,-999.0,28,-99.99,,,-99.99,763.000000,,2013-07-25 23:02:00,
2013-07-25 17:12:00,82.0,46.0,30.03,NNW,331,2.0,-999.0,28,-99.99,,,-99.99,301.000000,,2013-07-25 23:12:00,
2013-07-25 17:22:00,81.0,42.0,30.03,NW,325,3.0,-999.0,25,-99.99,,,-99.99,162.000000,,2013-07-25 23:22:00,
2013-07-25 17:32:00,81.0,42.0,30.03,NW,325,3.0,-999.0,25,-99.99,,,-99.99,162.000000,,2013-07-25 23:32:00,
2013-07-25 17:43:00,79.0,44.0,30.03,NNW,336,5.0,-999.0,29,-99.99,,,-99.99,151.000000,,2013-07-25 23:43:00,
2013-07-25 17:52:00,78.0,44.0,30.02,NNE,12,1.0,-999.0,30,-99.99,,,-99.99,237.000000,,2013-07-25 23:52:00,
2013-07-25 18:02:00,78.0,44.0,30.02,NNE,12,1.0,-999.0,30,-99.99,,,-99.99,237.000000,,2013-07-26 00:02:00,
2013-07-25 18:12:00,80.0,45.0,30.02,NW,320,1.0,-999.0,29,-99.99,,,-99.99,450.000000,,2013-07-26 00:12:00,
2013-07-25 18:22:00,81.0,44.0,30.01,North,355,1.0,-999.0,27,-99.99,,,-99.99,392.000000,,2013-07-26 00:22:00,
2013-07-25 18:32:00,81.0,44.0,30.01,North,355,1.0,-999.0,27,-99.99,,,-99.99,392.000000,,2013-07-26 00:32:00,
2013-07-25 18:43:00,81.0,43.0,30.01,NNW,339,1.0,-999.0,26,-99.99,,,-99.99,95.000000,,2013-07-26 00:43:00,
2013-07-25 18:52:00,80.0,44.0,30.02,NNW,338,0.0,-999.0,28,-99.99,,,-99.99,118.000000,,2013-07-26 00:52:00,
2013-07-25 19:02:00,80.0,44.0,30.02,NNW,338,0.0,-999.0,28,-99.99,,,-99.99,118.000000,,2013-07-26 01:02:00,
2013-07-25 19:12:00,79.0,44.0,30.02,North,5,0.0,-999.0,29,-99.99,,,-99.99,162.000000,,2013-07-26 01:12:00,
2013-07-25 19:22:00,79.0,45.0,30.02,North,11,0.0,-999.0,30,-99.99,,,-99.99,107.000000,,2013-07-26 01:22:00,
2013-07-25 19:32:00,79.0,45.0,30.02,North,11,0.0,-999.0,30,-99.99,,,-99.99,107.000000,,2013-07-26 01:32:00,
2013-07-25 19:43:00,78.0,44.0,30.02,South,175,1.0,-999.0,30,-99.99,,,-99.99,109.000000,,2013-07-26 01:43:00,
2013-07-25 19:52:00,78.0,43.0,30.02,SSE,165,0.0,-999.0,29,-99.99,,,-99.99,47.000000,,2013-07-26 01:52:00,
2013-07-25 20:02:00,78.0,43.0,30.02,SSE,165,0.0,-999.0,29,-99.99,,,-99.99,47.000000,,2013-07-26 02:02:00,
2013-07-25 20:12:00,77.0,43.0,30.01,SE,138,2.0,-999.0,30,-99.99,,,-99.99,30.000000,,2013-07-26 02:12:00,
2013-07-25 20:22:00,77.0,43.0,30.02,SSE,150,6.0,-999.0,30,-99.99,,,-99.99,28.000000,,2013-07-26 02:22:00,
2013-07-25 20:32:00,77.0,43.0,30.02,SSE,150,6.0,-999.0,30,-99.99,,,-99.99,28.000000,,2013-07-26 02:32:00,
2013-07-25 20:43:00,74.0,45.0,30.03,SE,141,13.0,-999.0,36,-99.99,,,-99.99,21.000000,,2013-07-26 02:43:00,
2013-07-25 20:52:00,73.0,46.0,30.04,SE,134,10.0,-999.0,38,-99.99,,,-99.99,5.000000,,2013-07-26 02:52:00,
2013-07-25 21:02:00,73.0,46.0,30.04,SE,134,10.0,-999.0,38,-99.99,,,-99.99,5.000000,,2013-07-26 03:02:00,
2013-07-25 21:12:00,72.0,46.0,30.05,SE,128,13.0,-999.0,40,-99.99,,,-99.99,0.000000,,2013-07-26 03:12:00,
2013-07-25 21:22:00,71.0,45.0,30.05,SE,132,11.0,-999.0,40,-99.99,,,-99.99,0.000000,,2013-07-26 03:22:00,
2013-07-25 21:32:00,71.0,45.0,30.05,SE,132,11.0,-999.0,40,-99.99,,,-99.99,0.000000,,2013-07-26 03:32:00,
2013-07-25 21:43:00,70.0,45.0,30.05,SE,145,4.0,-999.0,41,-99.99,,,-99.99,0.000000,,2013-07-26 03:43:00,
2013-07-25 21:53:00,70.0,45.0,30.06,SE,127,6.0,-999.0,41,-99.99,,,-99.99,0.000000,,2013-07-26 03:53:00,
2013-07-25 22:02:00,70.0,45.0,30.06,SE,127,6.0,-999.0,41,-99.99,,,-99.99,0.000000,,2013-07-26 04:02:00,
2013-07-25 22:12:00,69.0,44.0,30.07,SSE,149,1.0,-999.0,41,-99.99,,,-99.99,0.000000,,2013-07-26 04:12:00,
2013-07-25 22:22:00,68.0,44.0,30.07,SSE,152,0.0,-999.0,42,-99.99,,,-99.99,0.000000,,2013-07-26 04:22:00,
2013-07-25 22:32:00,68.0,44.0,30.07,SSE,152,0.0,-999.0,42,-99.99,,,-99.99,0.000000,,2013-07-26 04:32:00,
2013-07-25 22:42:00,67.0,44.0,30.09,SE,136,1.0,-999.0,43,-99.99,,,-99.99,0.000000,,2013-07-26 04:42:00,
2013-07-25 22:53:00,67.0,44.0,30.09,SSE,151,1.0,-999.0,43,-99.99,,,-99.99,0.000000,,2013-07-26 04:53:00,
2013-07-25 23:02:00,67.0,44.0,30.09,SSE,151,1.0,-999.0,43,-99.99,,,-99.99,0.000000,,2013-07-26 05:02:00,
2013-07-25 23:12:00,67.0,44.0,30.11,SE,132,0.0,-999.0,43,-99.99,,,-99.99,0.000000,,2013-07-26 05:12:00,
2013-07-25 23:22:00,66.0,45.0,30.11,NNE,28,0.0,-999.0,46,-99.99,,,-99.99,0.000000,,2013-07-26 05:22:00,
2013-07-25 23:32:00,66.0,45.0,30.11,NNE,28,0.0,-999.0,46,-99.99,,,-99.99,0.000000,,2013-07-26 05:32:00,
2013-07-25 23:43:00,64.0,44.0,30.11,ENE,70,6.0,-999.0,48,-99.99,,,-99.99,0.000000,,2013-07-26 05:43:00,
2013-07-25 23:52:00,66.0,43.0,30.10,SE,132,4.0,-999.0,44,-99.99,,,-99.99,0.000000,,2013-07-26 05:52:00,